Location: Franzen
(48.6167°N, 15.3833°E)
Time: 08:46:59
(UTC+00:00)

Cosmos 1437 Rocket - Pass Details

Date: 22 April 2021
Orbit: 503 x 564 km, 81.2° (Epoch: 16 May)

Event Time Altitude Azimuth Distance (km) Brightness Sun altitude
Exits shadow 21:29:49 30° 31° (NNE) 939 4.2 -25.9°
Drops below altitude 10° 21:31:55 10° 19° (NNE) 1,741 5.9 -26.0°
Sets 21:34:05 0° 15° (NNE) 2,641 7.1 -26.2°
